Wind_Speed
121 121 120 120 120 120 119 119 118 118 118 119 119 119 119 120 121 122 123 124 126 127 127 127 126 126 125 124 123 123 123 122 121 121 120 120 119 119 118 117 117 116 116 115 115 115 114 114 113 113 112 112 111 110 110 109 108 108 107 106 105 104 103 103 102 101 101 100 99 99 98 98 98 98 98 97 97 97 97 96 96 95 94 93 92 91
120 120 120 120 120 120 120 119 119 118 119 119 119 119 119 119 120 121 122 123 125 126 127 127 126 126 125 124 123 123 123 122 122 121 120 120 119 119 118 117 117 116 116 115 115 115 114 114 113 113 112 112 111 111 110 110 109 108 107 106 106 105 104 103 102 102 101 100 100 99 99 99 98 98 98 98 98 98 98 97 97 96 95 94 93 92
120 120 120 120 119 119 119 119 118 118 118 118 119 119 119 119 119 120 121 122 123 125 126 126 126 125 124 124 123 123 122 122 122 121 120 120 119 118 118 117 117 116 116 115 115 114 114 114 113 113 112 112 111 111 110 110 110 109 108 107 106 105 104 103 102 102 101 100 100 100 99 99 99 98 98 98 98 98 98 98 98 97 96 95 94 93
120 120 119 119 118 118 118 117 117 117 117 117 117 117 118 118 118 119 120 120 122 123 124 125 125 124 124 123 122 122 121 121 121 121 120 119 118 118 117 117 116 116 115 115 115 114 114 113 113 113 112 112 111 111 111 111 110 109 108 108 106 105 105 104 103 102 101 100 100 99 99 99 99 99 98 98 98 99 99 98 98 98 97 96 95 94
118 118 118 117 117 116 115 115 115 115 115 115 115 115 115 116 116 117 117 118 119 120 122 123 123 123 123 122 121 121 120 120 120 119 119 118 118 117 116 116 116 115 115 115 114 114 113 113 113 113 112 112 112 111 111 111 111 110 109 108 107 106 105 104 103 102 101 100 99 99 99 99 99 99 99 98 99 99 99 99 99 98 98 97 95 95
116 116 115 114 114 113 112 112 112 112 112 112 112 112 112 113 113 114 115 115 116 118 119 120 121 121 121 120 119 119 118 118 118 118 118 117 117 116 116 115 115 115 114 114 114 113 113 113 112 112 112 112 111 111 111 111 111 110 109 108 107 106 105 104 103 102 101 100 99 98 98 99 99 99 99 98 98 98 99 99 99 99 98 97 96 95
113 112 111 111 110 109 108 108 108 108 108 108 108 108 108 109 110 110 111 112 113 114 115 116 117 118 118 117 117 117 116 116 116 116 116 116 115 115 114 114 113 113 113 113 113 113 112 112 112 112 112 111 111 111 111 111 111 111 110 109 108 107 106 105 104 103 101 100 99 98 98 98 98 99 99 98 98 98 98 99 99 99 98 98 97 96
108 107 107 106 106 105 104 103 103 103 103 104 104 104 104 104 105 106 107 107 108 109 111 112 113 113 114 114 114 113 113 113 114 114 114 114 113 113 113 112 112 112 112 112 112 112 112 111 111 111 111 111 111 111 111 111 111 110 110 109 108 107 106 105 105 103 102 100 99 98 97 98 98 98 98 98 98 98 98 98 99 99 99 98 97 96
104 103 102 101 101 100 99 99 98 98 98 99 99 99 100 100 100 101 102 102 103 104 106 107 108 109 109 109 110 110 110 110 110 111 111 111 111 111 111 110 110 110 110 110 111 111 111 111 111 111 111 110 110 110 111 111 111 110 110 109 108 107 107 106 105 104 102 100 99 97 97 97 98 98 98 98 97 97 97 98 98 98 98 98 97 97
98 98 97 96 96 95 95 94 94 94 94 94 95 95 95 96 96 96 97 97 98 99 100 101 103 104 104 105 105 105 106 106 106 107 107 108 108 108 108 108 108 108 108 108 109 109 109 110 110 110 110 110 110 110 110 110 110 110 109 109 108 107 107 106 105 104 103 101 99 98 97 97 97 98 98 97 97 97 97 97 98 98 98 98 97 97
94 93 92 92 91 91 90 90 90 90 90 90 90 91 91 91 92 92 92 93 93 94 95 96 97 99 100 100 100 101 101 102 102 103 103 104 104 104 105 105 105 106 106 106 106 107 107 108 108 109 109 109 109 109 109 109 109 109 109 108 108 107 107 106 105 104 103 101 99 98 97 97 97 97 98 97 96 96 96 97 97 97 97 97 97 97
89 89 88 88 87 87 87 87 86 86 86 86 87 87 87 88 88 88 88 89 89 90 91 91 92 93 95 95 96 96 97 97 98 98 99 99 100 101 101 102 102 103 103 103 104 104 105 106 106 107 108 108 108 108 108 108 108 108 108 108 107 107 106 106 105 104 103 101 99 98 97 97 97 97 97 97 96 96 96 96 96 96 97 97 97 97
86 85 85 84 84 84 84 84 83 83 83 83 83 84 84 84 84 84 85 85 86 86 87 87 88 89 90 91 92 92 92 93 93 94 94 95 96 96 97 98 98 99 100 100 101 102 102 103 104 105 106 106 107 107 107 107 107 107 107 107 107 106 106 105 104 103 102 101 99 98 97 97 97 97 97 96 95 95 95 95 95 96 96 96 97 97
83 82 82 81 81 81 81 81 81 80 80 80 81 81 81 81 81 81 82 82 83 83 83 84 84 85 86 87 88 88 89 89 89 89 90 91 91 92 93 94 94 95 96 97 98 99 99 100 102 103 103 104 105 105 105 106 106 106 106 106 106 105 105 104 104 103 102 100 99 98 97 97 96 96 96 95 95 95 95 95 95 95 95 96 96 96
79 79 79 79 78 78 78 78 78 78 78 78 78 78 78 78 78 78 79 79 79 80 80 81 81 82 83 83 84 85 85 85 86 86 86 87 87 88 89 90 90 91 92 93 95 95 96 97 99 100 101 102 103 103 104 104 104 105 105 105 105 104 104 103 103 102 101 100 99 97 97 96 96 96 95 95 94 94 94 94 94 94 95 95 96 96
77 76 76 76 76 76 76 76 75 75 75 75 75 75 75 75 75 76 76 76 77 77 78 78 79 79 80 80 81 82 82 82 82 82 83 83 84 84 85 86 87 88 89 90 91 92 93 94 96 97 98 99 100 101 101 102 103 103 103 103 103 103 102 102 101 101 100 99 98 97 96 96 95 95 94 94 94 93 93 93 93 93 94 94 95 95
74 74 74 74 74 74 74 73 73 73 73 73 73 73 73 73 73 73 73 74 74 74 75 75 76 76 77 78 78 78 79 79 79 79 80 80 81 81 82 83 84 85 86 87 88 89 90 91 92 94 95 96 97 98 99 100 100 100 101 101 101 101 101 100 100 99 98 97 96 96 95 95 94 94 94 93 93 92 92 92 92 93 93 94 94 94
71 71 71 71 72 72 72 71 71 71 71 71 71 70 70 70 70 71 71 71 71 72 72 72 73 74 74 75 75 75 76 76 76 77 77 78 78 79 79 80 81 82 83 84 85 86 87 88 89 90 92 93 94 95 96 97 97 98 98 98 99 99 99 98 98 97 97 96 95 94 94 94 94 93 93 92 92 92 92 91 92 92 92 93 93 93
69 69 69 69 69 69 69 69 69 69 69 69 69 68 68 68 68 68 68 69 69 69 69 70 70 71 72 72 73 73 73 73 74 74 75 75 76 76 77 77 78 79 80 81 82 83 84 85 86 87 88 90 91 92 93 94 94 95 95 96 96 96 96 96 96 95 95 94 94 93 93 93 93 92 92 92 91 91 91 91 91 91 91 92 92 92
67 68 68 68 68 68 67 68 67 67 67 67 67 67 66 66 66 66 66 66 66 66 67 67 68 68 69 70 70 70 70 71 71 72 73 73 74 74 74 75 76 77 77 78 79 80 81 82 83 84 85 86 88 89 90 91 91 92 93 93 93 93 94 94 94 93 93 92 92 92 92 92 92 91 91 91 90 90 90 90 90 90 90 91 91 91
66 67 67 67 66 66 66 66 65 65 65 65 65 65 65 65 64 64 64 64 64 64 64 65 65 66 66 67 67 68 68 68 69 70 70 71 71 72 72 73 73 74 75 76 77 77 78 79 80 81 82 83 85 86 87 88 88 89 90 90 90 91 91 91 91 91 91 91 90 90 90 90 90 90 90 90 90 89 89 89 89 89 90 90 90 91
64 65 65 65 65 65 64 64 64 63 63 63 63 63 63 63 62 62 62 62 62 62 62 62 63 63 64 64 65 65 65 66 66 67 68 68 69 69 70 70 71 72 73 73 74 75 75 76 77 78 79 80 82 83 84 85 86 86 87 87 88 88 89 89 89 89 89 89 89 89 89 89 89 89 89 89 89 88 88 88 89 89 89 89 90 90
61 62 63 64 64 63 63 62 62 62 61 61 61 61 61 61 60 60 60 60 60 60 60 60 61 61 61 62 62 63 63 63 64 65 65 66 67 67 67 67 68 69 70 71 72 72 73 74 75 76 77 78 79 80 81 82 83 83 84 85 85 86 86 86 86 87 87 87 87 87 87 88 88 88 88 88 88 88 88 88 88 88 88 89 89 89
59 60 60 61 62 62 62 61 61 60 60 59 59 59 59 58 58 58 58 58 58 58 58 58 58 59 59 60 60 60 61 61 62 62 63 64 64 65 65 65 66 67 68 69 69 70 71 71 72 74 74 76 77 78 79 80 80 81 82 82 83 83 84 84 84 85 85 85 86 86 86 86 86 86 86 86 87 87 87 87 87 87 88 88 88 89
57 57 58 58 59 59 60 60 59 59 58 58 57 57 57 56 56 56 56 56 56 56 56 56 57 57 57 57 58 58 59 59 60 60 61 61 62 63 63 63 64 65 66 66 67 68 68 69 70 71 72 73 74 75 76 77 78 78 79 80 80 81 81 82 82 83 83 83 84 84 85 85 85 85 85 85 86 86 86 86 86 87 87 87 88 88
55 55 56 56 57 57 58 58 58 58 57 57 56 56 55 55 54 54 54 54 54 54 54 55 55 55 56 56 56 56 57 57 57 58 59 59 60 61 61 61 62 62 63 64 65 65 66 67 68 69 70 71 72 73 74 74 75 76 76 77 78 78 79 80 80 81 81 82 82 83 83 83 84 84 84 84 85 85 85 86 86 86 86 87 87 87
54 54 54 54 54 55 55 56 56 56 56 55 55 54 54 53 53 53 52 52 52 52 52 53 53 54 54 54 54 54 55 55 56 56 57 58 58 59 59 59 60 60 61 62 62 63 64 65 66 67 68 69 70 71 71 72 73 73 74 75 76 77 77 78 78 79 79 80 81 81 82 82 82 83 83 83 84 84 84 85 85 85 86 86 86 86
52 52 52 52 53 53 53 54 54 54 54 54 54 53 53 52 52 51 51 50 50 50 50 51 52 52 52 52 52 53 53 54 54 55 55 56 56 57 58 58 58 58 59 60 60 61 62 63 64 65 66 67 68 68 69 70 71 71 72 73 74 75 75 76 77 77 78 79 79 80 80 81 81 82 82 82 83 83 84 84 84 85 85 85 85 85
51 51 51 51 51 51 52 52 52 52 52 52 52 52 51 51 50 50 50 49 48 48 49 49 50 50 51 51 51 52 52 52 53 53 53 54 55 56 56 56 56 57 57 58 59 59 60 61 62 63 64 65 66 67 67 68 69 69 70 71 72 73 74 74 75 76 76 77 78 78 79 80 80 81 81 82 82 82 83 83 83 84 84 84 84 84
50 50 50 50 50 50 50 50 50 51 51 51 51 50 50 50 50 49 49 48 47 47 47 47 48 48 49 49 50 50 51 51 51 51 52 52 53 54 54 54 55 55 56 56 57 58 59 60 60 62 62 63 64 65 65 66 67 68 69 69 70 71 72 73 74 74 75 76 76 77 78 79 79 80 80 81 81 82 82 82 83 83 83 83 83 83
49 49 49 48 48 48 48 49 49 49 49 49 49 49 49 49 48 48 48 47 46 46 46 46 46 46 47 48 48 49 50 50 50 50 50 51 52 52 52 53 53 54 54 55 55 56 57 58 59 60 61 62 63 63 64 65 65 66 67 68 69 70 71 72 72 73 74 75 75 76 77 77 78 79 79 80 80 81 81 81 82 82 82 82 82 82
48 47 47 47 47 47 47 47 47 47 48 48 48 48 48 48 47 47 47 47 46 45 45 44 44 44 45 46 47 48 48 49 49 49 49 50 51 51 51 51 52 53 53 53 54 55 56 57 58 59 59 60 61 62 63 63 64 65 66 67 68 69 69 70 71 72 73 73 74 75 76 76 77 78 78 79 79 80 80 80 81 81 81 81 81 81
46 46 46 46 46 45 46 46 46 46 46 46 46 47 46 46 46 46 46 46 45 45 44 43 43 43 43 44 45 46 47 47 47 47 48 49 49 50 50 51 51 52 52 53 53 54 55 56 57 58 58 59 60 61 61 62 63 63 64 65 66 67 68 69 70 71 71 72 73 74 75 75 76 77 77 78 78 79 79 79 80 80 80 80 80 81
45 45 44 44 44 44 44 44 44 44 45 45 45 45 45 45 45 46 46 45 45 44 44 43 42 42 42 42 43 44 45 46 46 46 47 48 48 49 49 50 50 51 51 52 53 53 54 55 56 57 57 58 59 59 60 61 61 62 63 64 65 66 67 68 68 69 70 71 72 73 73 74 75 75 76 77 77 78 78 78 79 79 79 79 80 80
44 44 43 43 42 43 43 43 43 43 43 44 44 44 44 44 45 45 45 45 45 44 44 43 42 41 41 41 42 43 43 44 44 45 46 47 47 48 48 49 49 50 50 51 52 53 54 54 55 56 56 57 58 58 59 60 60 61 62 63 64 65 66 66 67 68 69 70 70 71 72 73 73 74 75 75 76 77 77 77 78 78 78 78 79 79
44 43 42 41 41 41 41 41 42 42 42 42 43 43 43 43 43 44 44 44 44 44 44 43 42 41 41 40 41 41 42 42 43 44 45 46 46 47 48 48 48 49 49 50 51 52 53 53 54 55 55 56 57 58 58 59 59 60 61 62 63 64 65 65 66 67 68 68 69 70 71 71 72 73 74 74 75 75 76 76 77 77 77 78 78 78
43 42 41 40 40 39 39 40 40 40 41 41 41 42 42 42 42 43 43 43 43 44 44 44 43 42 41 40 40 40 41 41 42 42 44 45 46 46 47 47 47 48 49 49 50 51 52 52 53 54 55 56 56 57 57 58 58 59 60 61 62 63 64 64 65 66 67 67 68 69 70 70 71 72 73 73 74 74 75 75 76 76 76 77 77 77
42 41 40 39 38 38 38 38 38 39 39 39 40 40 40 41 41 42 42 42 43 43 44 44 43 43 42 41 40 40 40 40 41 41 42 43 44 45 46 47 47 47 48 49 49 50 50 51 52 53 54 55 56 56 57 57 58 59 59 60 61 62 63 63 64 65 65 66 67 68 69 69 70 71 71 72 73 73 74 74 75 75 75 76 76 76
42 41 40 39 38 37 37 37 37 37 37 38 38 39 39 40 40 40 41 41 42 42 43 43 43 43 43 42 41 40 40 40 40 41 41 42 43 44 45 46 46 47 47 48 48 49 50 51 52 53 53 54 55 56 56 56 57 58 58 59 60 61 62 62 63 64 65 65 66 67 68 68 69 70 70 71 71 72 73 73 73 74 74 74 74 74
41 41 40 39 38 37 36 36 36 36 36 36 37 37 38 38 39 39 40 40 41 41 42 43 43 43 43 43 42 41 40 40 40 40 40 41 42 43 44 45 46 46 46 47 48 48 49 50 51 52 53 53 54 55 55 56 56 57 57 58 59 60 61 61 62 63 64 64 65 66 67 67 68 68 69 70 70 71 71 72 72 72 72 73 73 73
40 40 40 40 39 38 36 36 35 35 35 35 36 36 36 36 37 38 38 39 40 40 41 42 42 43 43 43 43 42 41 41 40 40 40 40 41 42 43 44 45 45 46 46 47 48 49 49 50 51 52 53 53 54 54 55 55 56 56 57 58 59 59 60 61 62 63 63 64 65 65 66 67 67 68 68 69 69 69 70 70 71 71 71 71 72
40 40 40 40 39 38 37 36 35 35 35 35 35 35 35 35 36 36 37 38 39 40 40 41 41 42 43 43 43 43 42 42 41 40 40 40 40 41 42 43 43 44 45 46 46 47 48 49 50 50 51 52 52 53 54 54 54 55 55 56 57 57 58 59 60 61 62 62 63 64 64 65 65 66 66 67 67 67 68 68 68 69 69 69 70 70
39 39 40 40 39 39 38 37 36 35 35 35 35 35 34 35 35 36 36 37 38 39 39 40 41 41 42 43 43 43 43 42 41 41 40 40 40 40 41 41 42 43 44 45 46 47 48 48 49 50 51 51 52 52 53 53 54 54 55 55 56 56 57 58 59 59 60 61 62 63 63 64 64 64 65 65 65 66 66 67 67 67 68 68 68 69
38 39 39 39 39 39 39 38 37 37 36 36 35 35 34 34 35 35 36 36 37 38 38 39 40 41 42 43 43 43 43 42 42 42 41 40 40 40 40 41 41 42 43 44 45 46 47 48 48 49 50 51 51 52 52 53 53 54 54 54 55 56 57 57 57 58 59 60 61 61 62 62 63 63 63 63 64 64 65 65 66 66 66 67 67 67
37 38 38 38 39 39 39 38 38 38 37 37 36 36 35 35 35 35 35 35 36 37 37 38 39 40 41 42 43 43 43 43 43 42 42 41 40 40 40 40 40 41 42 42 44 44 45 47 48 48 49 50 51 51 52 53 53 53 54 54 54 55 56 56 56 57 58 58 59 60 60 60 61 61 61 62 62 63 63 64 64 65 65 65 66 66
36 37 37 37 38 38 38 38 38 38 38 38 38 37 36 36 35 35 35 35 35 35 36 37 38 40 41 42 42 43 43 43 43 43 42 42 41 41 41 40 40 41 41 41 42 43 44 45 46 47 48 49 50 51 52 52 53 53 53 53 54 54 55 55 55 56 57 57 58 58 58 58 59 59 60 60 60 61 62 62 63 63 63 64 64 65
36 36 36 36 37 37 38 38 38 39 39 39 38 38 37 37 36 36 35 35 35 35 35 36 37 39 40 41 42 42 43 43 43 43 43 42 42 41 41 41 41 41 41 41 41 42 43 44 45 46 47 48 49 50 51 52 52 53 53 53 53 53 54 54 55 55 55 56 56 56 57 57 57 58 58 59 59 59 60 61 61 62 62 62 63 63
35 35 35 36 36 37 37 38 38 38 39 39 39 38 38 37 37 36 36 35 35 35 35 35 36 38 39 40 41 41 42 43 43 43 43 43 43 42 41 41 41 41 41 41 41 42 42 43 44 45 46 47 48 49 50 51 51 52 52 52 52 52 53 53 54 54 54 54 55 55 55 55 56 56 57 57 58 58 59 60 60 60 61 61 62 62
36 35 35 36 36 36 37 37 37 38 38 38 38 38 38 38 37 37 36 35 35 35 35 35 36 37 38 38 39 40 41 41 42 43 43 43 43 43 42 42 41 41 41 41 42 42 42 42 43 44 45 46 47 48 49 49 50 50 50 51 51 51 52 52 52 53 53 53 53 54 54 54 55 55 55 56 57 57 58 58 59 59 60 60 61 61
36 36 36 36 36 36 36 36 36 37 37 37 38 38 38 37 37 36 36 36 35 35 35 35 36 36 36 37 37 38 39 40 40 41 42 42 43 43 43 42 42 42 42 42 42 42 42 42 43 44 45 46 47 48 48 48 48 48 49 49 49 50 51 51 51 51 52 52 52 52 53 53 53 54 54 55 56 56 57 57 58 58 59 59 60 60
36 36 36 36 36 35 35 35 35 35 36 36 36 36 36 36 36 35 35 35 35 35 35 35 35 35 35 36 36 37 37 38 38 39 40 41 41 42 42 42 42 42 42 42 42 42 42 43 43 44 44 45 46 46 47 47 47 47 47 48 48 49 49 50 50 50 50 51 51 51 51 52 52 52 53 53 54 54 55 56 56 57 57 58 58 58
Wind_Direction
278 278 277 277 276 275 275 274 273 272 272 271 270 269 269 268 268 268 267 267 267 267 267 267 267 266 266 266 266 266 266 266 266 265 265 265 265 264 264 264 264 264 263 263 263 263 263 263 263 263 263 263 263 263 263 262 262 262 261 261 260 260 260 259 259 259 258 258 258 258 258 258 258 258 258 258 258 258 258 258 258 258 258 257 257 257
278 278 277 276 276 275 275 274 273 272 272 271 270 270 269 268 268 267 267 267 267 267 266 266 266 266 266 266 265 265 265 265 265 265 265 264 264 264 264 264 263 263 263 263 263 263 263 263 263 263 263 263 263 263 262 262 262 262 261 261 261 260 260 259 259 259 258 258 258 258 258 258 258 258 258 258 258 258 258 258 258 258 258 258 257 257
278 278 277 276 276 275 274 274 273 272 272 271 270 270 269 268 268 267 267 266 266 266 266 266 266 265 265 265 265 265 265 265 264 264 264 264 264 263 263 263 263 263 263 262 262 262 262 262 262 262 262 262 262 262 262 262 262 262 261 261 261 260 260 259 259 259 258 258 258 258 258 257 257 257 258 258 258 258 258 258 258 258 258 258 258 257
278 278 277 276 276 275 274 274 273 272 272 271 270 270 269 268 268 267 267 266 266 266 266 266 265 265 265 264 264 264 264 264 264 264 264 263 263 263 263 263 263 262 262 262 262 262 262 262 262 262 262 262 262 262 262 262 262 261 261 261 261 260 260 260 259 259 258 258 258 258 258 257 257 257 257 257 257 258 258 258 258 258 258 258 258 258
278 278 277 276 276 275 274 274 273 272 272 271 270 270 269 268 268 267 267 266 266 266 265 265 265 265 264 264 264 264 263 263 263 263 263 263 263 262 262 262 262 262 262 262 261 261 261 261 261 261 261 261 261 261 261 261 261 261 261 261 261 260 260 260 259 259 258 258 258 257 257 257 257 257 257 257 257 257 258 258 258 258 258 258 258 257
278 278 277 276 276 275 274 274 273 272 272 271 270 270 269 268 268 267 267 266 266 265 265 265 265 264 264 264 264 263 263 263 263 263 263 262 262 262 262 261 261 261 261 261 261 261 261 261 261 261 261 261 261 261 261 261 261 261 261 261 260 260 260 260 259 259 258 258 257 257 257 257 257 257 257 256 257 257 257 257 258 258 258 258 258 257
278 278 277 276 276 275 274 274 273 272 272 271 270 270 269 268 268 267 267 266 266 265 265 265 264 264 264 264 264 263 263 263 262 262 262 262 262 262 261 261 261 261 261 260 260 260 260 260 260 260 260 260 260 260 260 260 260 260 260 260 260 260 260 260 259 259 258 258 257 257 257 257 257 257 256 256 256 256 257 257 257 257 257 257 257 257
278 278 277 276 276 275 274 274 273 272 272 271 270 270 269 268 268 267 266 266 265 265 265 265 264 264 264 264 263 263 263 262 262 262 262 262 261 261 261 261 260 260 260 260 260 260 260 259 259 259 259 259 259 259 259 259 259 259 259 260 259 259 259 259 259 259 258 257 257 256 256 256 256 256 256 256 256 256 256 256 257 257 257 257 257 257
278 278 277 276 276 275 274 274 273 272 272 271 270 270 269 268 268 267 266 266 265 265 265 265 264 264 264 264 263 263 263 262 262 262 261 261 261 261 260 260 260 260 259 259 259 259 259 259 259 259 259 258 258 258 258 258 259 259 259 259 259 259 259 259 258 258 258 257 257 256 256 256 256 256 256 255 255 255 255 256 256 256 257 257 257 257
278 277 277 276 276 275 274 274 273 272 272 271 270 270 269 268 268 267 267 266 266 265 265 265 265 264 264 264 263 263 263 262 262 261 261 261 261 260 260 260 260 259 259 259 258 258 258 258 258 258 258 258 258 258 258 258 258 258 258 258 258 258 258 258 258 258 257 257 256 256 256 255 255 255 255 255 255 255 255 255 256 256 256 256 257 257
278 277 277 276 276 275 274 274 273 272 272 271 271 270 269 269 268 268 267 267 266 266 265 265 265 264 264 264 263 263 262 262 262 261 261 261 260 260 260 259 259 259 258 258 258 258 258 257 257 257 257 257 257 257 257 257 257 257 257 257 257 257 257 257 257 257 257 257 256 256 255 255 255 255 255 255 255 254 255 255 255 255 256 256 256 256
278 277 277 276 276 275 275 274 273 273 272 271 271 270 270 269 269 268 268 267 267 266 265 265 265 265 264 264 264 263 263 262 262 261 261 260 260 260 259 259 259 258 258 258 257 257 257 257 257 257 257 257 256 256 256 256 257 257 257 257 257 257 257 257 257 257 257 256 256 255 255 255 255 255 254 254 254 254 254 254 254 255 255 255 256 256
278 277 277 276 276 275 275 274 273 273 272 272 271 270 270 269 269 268 268 267 267 266 266 265 265 265 264 264 264 263 263 262 262 261 261 260 260 260 259 259 258 258 258 257 257 257 256 256 256 256 256 256 256 256 256 256 256 256 256 256 256 256 256 256 256 256 256 256 256 255 255 255 254 254 254 254 254 254 254 254 254 254 254 255 255 255
278 278 277 277 276 275 275 274 274 273 272 272 271 271 270 269 269 269 268 268 267 267 266 265 265 265 264 264 264 263 263 262 262 261 261 260 260 259 259 259 258 258 257 257 257 256 256 256 255 255 255 255 255 255 255 255 255 255 255 255 255 255 255 255 255 256 255 255 255 255 255 254 254 254 254 254 253 253 253 253 253 254 254 254 255 255
278 278 277 277 276 276 275 274 274 273 272 272 271 271 270 270 269 269 268 268 267 267 266 266 265 265 264 264 264 263 263 262 262 261 261 260 260 259 259 258 258 258 257 257 256 256 255 255 255 255 255 254 254 254 254 254 254 254 254 255 255 255 255 255 255 255 255 255 255 254 254 254 254 254 253 253 253 253 253 253 253 253 253 254 254 254
278 278 277 277 276 276 275 274 274 273 273 272 271 271 270 270 269 269 269 268 267 267 266 266 265 265 265 264 264 263 263 263 262 262 261 260 260 259 259 258 258 257 257 256 256 255 255 254 254 254 254 254 254 254 254 254 254 254 254 254 254 254 254 254 254 254 254 254 254 254 254 254 253 253 253 253 253 253 253 253 253 253 253 253 254 254
279 278 278 277 276 276 275 275 274 274 273 272 272 271 271 270 270 269 269 268 268 267 267 266 266 265 265 264 264 263 263 263 263 262 261 260 260 259 258 258 257 257 256 256 255 255 254 254 253 253 253 253 253 253 253 253 253 253 253 253 253 253 254 254 254 254 254 254 253 253 253 253 253 253 253 253 253 252 252 252 252 252 253 253 253 253
279 278 278 277 276 276 276 275 275 274 274 273 273 272 271 271 270 270 269 269 268 268 267 267 266 266 265 265 264 264 263 263 263 262 261 260 260 259 258 257 257 256 256 255 255 254 254 253 253 253 253 252 252 252 252 252 252 253 253 253 253 253 253 253 253 253 253 253 253 253 253 253 253 253 252 252 252 252 252 252 252 252 252 252 253 253
279 278 278 277 277 276 276 276 275 275 274 274 273 273 272 271 271 270 270 269 268 268 268 267 267 266 266 265 265 264 263 263 262 262 261 260 259 259 258 257 257 256 255 255 254 254 254 253 253 253 252 252 252 252 252 252 252 252 252 252 252 252 253 253 253 253 253 253 253 252 252 252 252 252 252 252 252 252 252 252 252 252 252 252 252 253
280 279 278 277 277 277 276 276 275 275 275 274 274 273 273 272 271 271 270 270 269 268 268 267 267 266 266 265 265 264 264 263 262 262 261 260 260 259 258 257 257 256 256 255 255 254 254 253 253 252 252 252 252 252 252 252 252 252 252 252 252 252 252 252 252 252 252 252 252 252 252 252 252 252 252 251 251 251 251 251 251 251 251 252 252 252
280 279 279 278 278 277 277 276 276 275 275 275 274 274 273 273 272 271 271 270 270 269 268 268 267 267 266 266 265 264 264 263 262 262 261 260 260 259 258 257 257 256 256 255 255 254 254 253 253 252 252 252 252 251 251 251 251 251 251 251 251 251 252 252 252 252 252 252 251 251 251 251 251 251 251 251 251 251 251 251 251 251 251 251 251 252
280 280 279 279 278 278 277 277 276 276 275 275 274 274 273 273 273 272 272 271 270 270 269 268 267 267 266 266 265 264 264 263 262 262 261 261 260 259 258 258 257 256 256 255 255 254 253 253 252 252 252 252 251 251 251 251 251 251 251 251 251 251 251 251 251 251 251 251 251 251 251 251 250 250 250 250 250 250 250 250 250 250 250 251 251 251
280 280 280 280 279 279 278 278 277 276 276 275 275 274 274 273 273 273 272 271 271 270 269 268 268 267 267 266 265 265 264 263 262 262 261 261 260 259 258 258 257 256 256 255 255 254 253 253 252 252 252 251 251 251 251 250 250 250 250 250 250 250 250 250 250 250 250 250 250 250 250 250 250 250 250 250 250 250 250 250 250 250 250 250 251 251
280 279 280 279 280 279 279 278 278 277 276 276 275 274 274 274 273 273 272 272 271 270 270 269 268 267 267 266 265 265 264 263 263 262 261 261 260 259 258 258 257 256 256 255 254 254 253 253 252 252 251 251 251 250 250 250 250 250 250 250 250 250 250 250 250 250 250 250 250 250 250 249 249 249 249 249 249 249 249 249 249 250 250 250 250 251
280 280 279 279 279 279 279 279 278 278 277 276 276 275 274 274 273 273 272 272 271 271 270 270 269 267 267 266 265 265 264 263 263 262 261 260 260 259 258 257 257 256 255 255 254 254 253 252 252 252 251 251 251 250 250 250 250 250 250 249 249 249 249 249 249 249 249 249 249 249 249 249 249 249 249 249 249 249 249 249 249 249 249 250 250 251
281 280 280 279 279 279 279 279 279 278 278 277 277 276 275 275 274 273 272 272 271 271 271 270 269 268 267 266 265 265 264 263 262 262 261 260 260 259 258 257 256 256 255 255 254 253 253 252 252 251 251 251 250 250 250 250 250 249 249 249 249 249 249 249 249 248 248 248 248 248 248 248 248 248 248 248 248 249 249 249 249 249 249 250 250 250
282 281 280 280 280 279 279 279 279 279 278 278 277 277 276 275 274 274 273 272 271 271 270 269 269 268 267 266 265 264 264 263 262 261 261 260 259 259 258 257 256 256 255 254 254 253 253 252 252 251 251 251 250 250 250 250 249 249 249 249 249 248 248 248 248 248 248 248 248 248 248 248 248 248 248 248 248 248 248 249 249 249 249 250 250 250
282 282 281 281 280 280 280 279 279 279 279 278 278 277 277 276 275 274 273 272 271 271 270 269 269 268 267 267 266 265 264 263 262 261 261 260 260 259 258 257 257 256 255 254 254 253 253 252 252 251 251 250 250 250 250 249 249 249 248 248 248 248 248 248 248 248 247 247 247 248 248 248 248 248 248 248 248 248 248 248 249 249 249 250 250 250
283 282 282 281 281 280 280 280 279 279 279 279 278 278 277 277 276 275 274 273 272 271 270 269 269 268 268 267 266 265 264 263 262 261 261 260 260 259 259 258 257 256 255 255 254 253 253 252 251 251 250 250 250 249 249 249 249 248 248 248 248 248 248 247 247 247 247 247 247 247 247 247 248 248 248 248 248 248 248 249 249 249 249 250 250 250
284 283 282 282 281 281 280 280 280 279 279 279 279 278 278 277 276 275 274 273 272 271 270 269 269 268 268 267 266 265 264 263 262 262 261 261 260 259 259 258 257 257 256 255 254 253 253 252 251 251 250 250 250 249 249 249 248 248 248 248 247 247 247 247 247 247 247 247 247 247 247 247 247 247 248 248 248 248 248 249 249 249 249 250 250 250
284 283 283 282 281 281 281 280 280 280 279 279 279 278 278 277 277 276 275 274 273 271 270 269 269 268 268 267 267 266 265 264 263 262 262 261 260 260 259 258 257 257 256 255 254 254 253 252 252 251 250 250 250 249 249 248 248 248 248 247 247 247 247 247 247 246 246 247 246 247 247 247 247 247 248 248 248 248 248 249 249 249 250 250 250 250
284 283 283 282 282 281 281 280 280 280 279 279 279 279 278 278 277 276 275 274 273 272 271 270 269 268 268 267 267 266 266 265 264 263 262 261 260 260 259 258 258 257 256 255 254 254 253 252 252 251 251 250 250 249 249 248 248 248 247 247 247 247 247 247 246 246 246 246 246 246 247 247 247 247 247 248 248 248 249 249 249 249 250 250 250 250
284 283 283 282 282 281 281 280 280 280 279 279 279 278 278 278 277 277 276 275 274 273 271 270 269 268 268 267 267 266 266 265 265 264 263 262 261 260 259 258 258 257 256 255 254 254 253 253 252 251 251 250 250 250 249 249 248 248 248 247 247 247 247 247 246 246 246 246 246 247 247 247 247 247 247 248 248 248 249 249 249 249 250 250 250 251
283 283 282 282 282 281 281 280 280 279 279 279 279 278 278 278 277 277 277 276 275 274 273 271 269 268 267 266 266 266 266 265 265 264 263 262 261 260 259 258 258 257 256 255 255 254 253 253 252 252 251 251 250 250 249 249 249 248 248 248 247 247 247 247 247 247 247 247 247 247 247 247 247 247 248 248 248 248 249 249 249 250 250 250 250 251
283 282 282 281 281 281 280 280 279 279 279 278 278 278 278 278 277 277 277 277 276 275 274 272 270 269 267 266 265 265 265 265 264 264 263 262 261 261 260 259 258 257 257 256 255 255 254 253 253 252 252 251 251 250 250 249 249 248 248 248 248 248 247 247 247 247 247 247 247 247 247 247 247 248 248 248 248 249 249 249 249 250 250 250 250 251
283 282 281 281 280 280 280 279 279 279 278 278 278 277 277 277 277 277 277 277 276 276 275 274 272 270 268 266 265 265 264 264 264 263 263 262 262 261 260 259 258 258 257 256 256 255 255 254 254 253 253 252 251 251 250 249 249 249 249 248 248 248 248 247 247 247 247 247 247 247 247 247 248 248 248 248 248 249 249 249 250 250 250 250 251 251
283 282 282 281 280 279 279 278 278 278 278 277 277 277 277 277 277 277 277 277 277 276 276 275 273 271 269 267 266 264 264 263 263 262 262 262 262 261 261 260 259 258 257 257 256 256 255 255 254 254 253 253 252 251 251 250 249 249 249 249 248 248 248 248 248 248 247 247 247 247 248 248 248 248 248 248 249 249 249 249 250 250 250 250 251 251
284 283 282 281 280 279 278 278 277 277 277 277 277 277 276 276 277 276 276 276 276 276 276 275 275 273 271 269 267 265 264 263 262 261 261 261 261 261 261 260 259 259 258 257 257 256 256 255 255 254 254 253 253 252 252 251 250 250 249 249 249 249 249 248 248 248 248 248 248 248 248 248 248 248 248 248 248 249 249 249 249 250 250 250 250 251
285 284 283 282 281 280 279 278 277 277 277 277 277 276 276 276 276 276 276 276 276 276 276 276 275 275 274 272 270 268 265 264 262 261 261 260 261 261 261 260 260 259 258 258 257 257 256 255 255 255 254 254 253 253 252 252 251 250 250 250 249 249 249 249 249 248 248 248 248 248 248 248 248 248 248 248 248 248 249 249 249 249 250 250 250 251
285 285 284 284 283 281 280 279 278 277 277 277 276 276 276 276 276 276 276 276 276 276 276 276 276 275 275 274 272 270 268 266 264 262 261 260 260 260 260 260 260 259 259 258 258 257 256 256 255 255 255 254 254 253 253 252 252 251 250 250 250 249 249 249 249 249 249 249 249 249 248 248 248 248 248 248 249 248 249 249 249 250 250 250 250 251
285 285 285 285 284 283 282 281 280 278 277 277 276 276 276 276 276 275 275 275 275 275 275 275 276 275 275 275 274 273 271 269 266 264 262 261 260 260 259 259 259 259 259 259 258 258 257 256 256 256 255 255 254 254 253 252 252 252 251 251 250 250 250 249 249 249 249 249 249 249 249 249 249 249 249 249 249 249 249 249 249 250 250 250 250 250
285 286 286 286 286 285 284 283 282 280 279 278 277 276 275 275 275 274 274 274 274 275 275 275 275 275 275 275 275 274 273 271 269 267 265 263 262 260 260 259 259 259 259 258 258 258 257 257 257 256 256 255 255 254 254 253 252 252 251 251 251 250 250 249 249 249 249 249 249 249 249 249 249 249 249 249 249 249 249 250 250 250 250 250 250 250
285 285 286 286 286 286 286 285 284 282 280 279 277 276 275 274 274 273 273 273 273 274 274 274 275 275 275 275 275 274 273 273 271 270 268 266 264 262 261 260 259 258 258 258 257 257 257 257 257 257 256 256 255 255 254 254 253 252 252 251 251 250 250 249 249 249 249 249 249 249 249 249 249 249 249 249 249 249 249 250 250 250 250 250 250 250
285 285 285 286 286 286 286 286 285 284 282 280 279 277 276 275 274 273 273 273 273 273 273 273 274 274 274 274 274 274 274 273 272 271 270 268 266 264 262 261 260 259 258 257 257 257 257 256 256 256 256 256 256 256 255 255 254 253 252 251 251 250 250 249 249 249 249 249 249 248 248 248 249 249 249 249 249 249 249 249 250 250 250 250 250 250
285 285 285 285 286 286 286 286 285 284 283 281 280 279 277 276 275 274 273 272 272 272 272 273 273 273 273 273 273 274 273 273 272 271 270 269 268 266 264 263 261 260 259 258 257 257 256 256 256 256 256 256 256 256 256 255 254 254 253 252 251 251 250 250 249 249 248 248 248 248 248 248 248 248 249 249 249 249 249 249 249 249 249 249 249 249
285 285 285 285 285 285 285 285 284 284 283 282 282 281 279 278 276 275 274 272 272 271 271 271 271 271 272 272 272 273 273 272 272 271 271 269 268 267 266 264 263 261 260 259 258 257 257 256 256 256 256 256 255 255 255 255 255 254 253 253 252 251 251 250 250 249 249 248 248 248 248 248 248 248 248 248 248 248 248 249 249 249 249 249 249 248
285 285 284 284 284 283 283 283 283 283 283 283 282 282 281 280 278 277 275 274 273 272 271 270 269 270 270 270 271 271 272 272 272 272 271 270 269 268 267 266 264 263 262 260 259 258 257 257 256 256 256 255 255 255 255 254 254 254 254 253 252 252 252 251 250 250 249 249 249 249 248 248 248 248 248 248 248 248 248 248 248 248 248 248 248 248
286 285 284 283 282 282 281 282 282 282 282 282 282 282 282 281 280 279 278 277 275 274 273 271 270 269 269 269 269 270 271 271 271 272 272 271 271 269 268 267 266 264 263 262 261 259 258 257 257 256 256 255 255 255 254 254 254 254 254 253 253 253 252 252 251 251 250 250 249 249 248 248 248 248 248 247 247 247 247 247 247 247 247 247 247 247
285 284 283 282 281 281 280 281 281 281 282 282 282 282 282 282 281 281 281 280 279 277 276 274 272 271 270 270 270 270 270 271 271 271 272 272 271 271 270 268 267 266 264 263 262 261 259 258 257 257 256 256 255 255 254 254 254 254 254 254 253 253 253 252 252 251 251 250 250 249 249 248 248 247 247 247 247 247 247 247 247 247 247 247 247 247
284 283 282 281 281 280 280 281 281 281 281 281 282 282 282 282 283 282 282 281 280 279 278 276 275 274 273 272 272 271 271 271 271 271 271 271 271 271 271 269 268 267 265 264 262 261 260 259 258 257 256 256 255 255 255 255 254 254 254 254 254 253 253 253 252 252 251 250 250 249 249 248 248 247 247 247 247 246 246 246 247 246 247 246 247 247
283 282 282 281 281 281 282 282 282 282 282 282 282 282 282 283 283 283 282 282 281 280 279 278 277 276 276 275 274 274 273 273 272 272 272 272 271 271 271 270 269 268 267 265 264 262 261 260 258 257 256 256 255 256 255 255 255 255 255 255 254 254 254 253 253 252 251 251 250 250 249 248 248 247 247 246 246 246 246 246 246 246 246 246 246 246
Height
10305 10301 10298 10298 10299 10297 10295 10294 10295 10297 10297 10294 10293 10294 10296 10295 10293 10290 10289 10287 10284 10282 10279 10279 10280 10283 10285 10287 10288 10289 10289 10290 10292 10294 10296 10298 10299 10301 10304 10305 10308 10310 10312 10314 10315 10317 10319 10320 10322 10324 10326 10328 10330 10332 10333 10335 10337 10339 10340 10342 10344 10346 10348 10350 10352 10354 10357 10359 10360 10362 10364 10365 10367 10368 10369 10370 10372 10373 10374 10375 10377 10379 10381 10384 10385 10387
10290 10288 10285 10284 10284 10283 10281 10279 10279 10280 10282 10280 10278 10277 10280 10281 10279 10277 10275 10274 10273 10270 10267 10266 10267 10270 10273 10275 10275 10277 10278 10279 10280 10281 10284 10285 10287 10289 10292 10294 10296 10299 10300 10302 10305 10306 10308 10310 10312 10314 10315 10317 10319 10321 10322 10324 10326 10328 10330 10332 10334 10335 10338 10340 10342 10344 10347 10349 10351 10353 10355 10356 10358 10359 10360 10362 10363 10364 10365 10366 10368 10370 10372 10374 10377 10379
10276 10274 10272 10269 10268 10268 10267 10265 10264 10265 10267 10266 10264 10263 10264 10265 10265 10263 10261 10261 10260 10258 10255 10254 10254 10257 10259 10262 10264 10265 10266 10267 10267 10269 10270 10273 10275 10278 10280 10282 10284 10287 10289 10291 10294 10295 10297 10299 10301 10303 10305 10307 10309 10310 10312 10314 10315 10317 10319 10321 10323 10325 10327 10330 10332 10334 10337 10339 10341 10344 10345 10347 10349 10350 10351 10352 10354 10355 10356 10357 10359 10360 10363 10365 10367 10369
10262 10259 10257 10254 10253 10253 10254 10252 10250 10250 10252 10251 10250 10249 10249 10250 10250 10249 10247 10247 10247 10246 10243 10241 10241 10243 10246 10248 10250 10252 10254 10255 10255 10256 10259 10261 10264 10266 10269 10271 10273 10275 10278 10280 10282 10285 10287 10289 10291 10293 10295 10297 10299 10300 10302 10303 10305 10306 10309 10310 10313 10315 10317 10319 10322 10324 10327 10329 10332 10334 10335 10337 10339 10340 10342 10344 10345 10346 10347 10348 10350 10351 10354 10356 10358 10360
10247 10245 10242 10240 10239 10239 10239 10238 10237 10237 10237 10236 10236 10236 10235 10235 10235 10234 10234 10234 10234 10233 10230 10229 10228 10230 10232 10235 10237 10240 10242 10243 10244 10245 10247 10249 10252 10254 10257 10260 10262 10264 10267 10269 10272 10274 10276 10278 10280 10282 10285 10287 10288 10290 10291 10293 10294 10295 10298 10300 10302 10304 10307 10309 10311 10314 10316 10319 10322 10324 10326 10328 10329 10331 10333 10334 10336 10337 10339 10340 10340 10342 10344 10347 10349 10351
10232 10230 10229 10227 10225 10225 10225 10224 10224 10224 10222 10222 10222 10222 10222 10222 10221 10220 10220 10220 10220 10219 10218 10217 10216 10217 10219 10222 10224 10227 10230 10232 10232 10234 10235 10237 10240 10242 10245 10249 10251 10254 10256 10258 10260 10263 10265 10267 10270 10272 10274 10276 10278 10280 10281 10282 10284 10285 10287 10290 10292 10294 10296 10299 10300 10303 10305 10309 10312 10314 10316 10318 10320 10321 10323 10325 10327 10328 10329 10330 10332 10334 10335 10337 10340 10342
10217 10216 10215 10214 10212 10212 10212 10211 10211 10210 10209 10209 10208 10208 10209 10209 10208 10208 10207 10207 10207 10206 10206 10205 10205 10205 10207 10209 10212 10215 10217 10220 10221 10222 10224 10225 10228 10230 10234 10237 10240 10242 10245 10247 10249 10252 10254 10256 10259 10261 10263 10265 10267 10269 10270 10272 10273 10275 10277 10279 10282 10284 10285 10288 10290 10292 10295 10298 10301 10304 10307 10309 10310 10312 10314 10315 10317 10319 10320 10322 10323 10325 10326 10328 10330 10333
10204 10203 10202 10201 10200 10199 10199 10199 10199 10197 10197 10196 10195 10195 10195 10195 10195 10195 10195 10195 10195 10194 10194 10194 10194 10194 10195 10198 10200 10203 10205 10208 10210 10211 10213 10214 10217 10219 10222 10225 10229 10232 10234 10237 10239 10240 10243 10245 10247 10250 10252 10254 10256 10259 10260 10261 10262 10264 10266 10269 10271 10273 10275 10277 10280 10282 10285 10287 10291 10294 10297 10299 10300 10302 10304 10306 10309 10310 10312 10313 10314 10315 10317 10319 10322 10324
10192 10190 10190 10189 10188 10187 10187 10187 10186 10186 10185 10184 10184 10184 10183 10183 10183 10183 10183 10184 10184 10184 10184 10183 10183 10183 10184 10187 10189 10191 10194 10196 10198 10200 10202 10203 10205 10207 10210 10214 10217 10220 10223 10225 10228 10230 10232 10234 10236 10239 10240 10243 10245 10247 10249 10250 10252 10254 10255 10258 10260 10263 10265 10267 10269 10272 10274 10277 10280 10284 10287 10289 10291 10293 10295 10297 10299 10301 10302 10304 10305 10307 10309 10310 10312 10315
10180 10179 10178 10177 10177 10177 10176 10175 10175 10175 10174 10174 10173 10172 10172 10172 10171 10171 10172 10173 10173 10174 10174 10174 10173 10173 10174 10175 10178 10180 10182 10184 10187 10189 10190 10192 10194 10197 10199 10202 10205 10209 10212 10214 10217 10219 10221 10223 10225 10227 10229 10232 10234 10236 10238 10239 10241 10243 10245 10248 10250 10252 10254 10257 10259 10261 10264 10267 10270 10274 10277 10279 10282 10284 10285 10288 10290 10292 10294 10295 10297 10298 10300 10302 10304 10306
10170 10169 10168 10167 10167 10166 10165 10165 10164 10164 10164 10163 10162 10162 10162 10161 10161 10161 10162 10163 10163 10164 10164 10164 10164 10164 10164 10165 10167 10169 10172 10174 10175 10177 10180 10182 10184 10186 10189 10191 10194 10197 10200 10203 10205 10208 10210 10212 10214 10216 10218 10220 10222 10225 10227 10229 10230 10232 10235 10237 10239 10242 10244 10246 10249 10251 10254 10257 10260 10264 10267 10269 10272 10274 10276 10279 10281 10283 10285 10286 10288 10290 10291 10293 10295 10297
10160 10159 10158 10157 10157 10156 10155 10155 10154 10154 10154 10154 10153 10152 10152 10152 10152 10152 10153 10153 10154 10154 10154 10154 10155 10155 10155 10155 10157 10159 10161 10164 10165 10167 10169 10172 10174 10175 10178 10180 10183 10186 10189 10192 10194 10197 10199 10201 10203 10205 10207 10209 10212 10214 10216 10218 10220 10222 10224 10227 10229 10231 10234 10236 10239 10241 10244 10247 10250 10254 10257 10260 10262 10265 10267 10269 10272 10274 10276 10277 10279 10281 10283 10284 10286 10287
10150 10150 10149 10148 10147 10147 10145 10145 10145 10145 10145 10144 10144 10143 10143 10143 10144 10144 10144 10144 10144 10145 10145 10145 10146 10147 10147 10147 10147 10149 10151 10153 10155 10157 10160 10162 10164 10165 10168 10170 10173 10175 10178 10181 10184 10186 10189 10190 10192 10194 10196 10199 10200 10203 10205 10207 10210 10212 10214 10216 10219 10221 10224 10226 10229 10231 10234 10237 10240 10244 10247 10250 10252 10255 10258 10260 10263 10265 10267 10269 10270 10272 10274 10275 10277 10279
10142 10141 10140 10139 10139 10137 10137 10136 10136 10135 10135 10135 10135 10135 10134 10135 10135 10135 10135 10135 10135 10135 10136 10137 10138 10138 10138 10138 10139 10139 10141 10144 10145 10148 10150 10152 10154 10156 10159 10160 10163 10165 10168 10170 10173 10175 10177 10180 10182 10184 10185 10187 10190 10192 10194 10197 10199 10202 10204 10205 10208 10210 10214 10216 10219 10222 10224 10227 10230 10234 10237 10240 10243 10245 10249 10251 10254 10256 10258 10260 10262 10264 10265 10267 10268 10270
10133 10132 10132 10131 10130 10129 10128 10127 10127 10127 10127 10126 10126 10126 10127 10127 10127 10127 10127 10127 10127 10127 10128 10129 10129 10129 10130 10130 10130 10131 10132 10134 10137 10139 10142 10143 10145 10147 10150 10151 10153 10155 10158 10160 10162 10164 10167 10169 10171 10173 10175 10177 10179 10181 10184 10185 10189 10191 10194 10196 10199 10200 10204 10206 10209 10212 10215 10218 10221 10224 10227 10230 10234 10236 10239 10242 10245 10247 10249 10251 10253 10255 10257 10258 10260 10261
10125 10125 10124 10122 10122 10120 10120 10119 10119 10119 10119 10118 10118 10119 10119 10119 10119 10120 10120 10119 10119 10119 10120 10120 10121 10122 10122 10122 10122 10124 10125 10126 10129 10131 10133 10135 10136 10139 10140 10142 10144 10145 10148 10150 10152 10154 10156 10159 10160 10162 10164 10167 10169 10170 10173 10175 10178 10180 10184 10186 10189 10191 10194 10197 10199 10202 10206 10209 10212 10215 10218 10221 10224 10227 10230 10233 10235 10238 10240 10242 10244 10246 10248 10249 10251 10252
10118 10117 10115 10114 10114 10112 10112 10112 10112 10111 10110 10110 10111 10111 10112 10112 10112 10112 10112 10112 10112 10112 10112 10113 10114 10114 10114 10114 10115 10116 10117 10119 10120 10122 10125 10126 10127 10129 10132 10133 10134 10135 10138 10140 10142 10144 10146 10149 10150 10152 10154 10157 10159 10160 10163 10165 10168 10170 10174 10176 10179 10182 10184 10187 10190 10193 10197 10200 10203 10206 10209 10212 10215 10218 10221 10224 10226 10229 10231 10234 10235 10237 10239 10240 10242 10244
10110 10109 10108 10107 10105 10105 10104 10104 10104 10104 10104 10104 10104 10104 10105 10105 10105 10105 10105 10105 10105 10105 10105 10106 10107 10107 10107 10107 10107 10109 10111 10112 10113 10114 10116 10117 10119 10120 10123 10124 10125 10127 10129 10130 10132 10134 10137 10139 10141 10143 10145 10147 10149 10151 10154 10156 10159 10161 10164 10167 10169 10172 10175 10178 10181 10184 10188 10191 10194 10197 10200 10204 10206 10209 10212 10214 10217 10220 10222 10225 10227 10229 10230 10232 10234 10235
10104 10102 10100 10099 10099 10098 10098 10097 10097 10097 10097 10097 10097 10097 10097 10097 10097 10098 10098 10098 10099 10099 10099 10100 10100 10099 10100 10100 10100 10102 10104 10105 10105 10106 10107 10109 10110 10112 10114 10116 10117 10118 10120 10122 10124 10125 10128 10130 10132 10134 10137 10139 10140 10142 10144 10147 10149 10152 10155 10157 10160 10163 10166 10169 10172 10175 10179 10182 10185 10189 10192 10194 10197 10200 10202 10205 10208 10210 10213 10215 10218 10220 10222 10224 10225 10227
10096 10094 10093 10092 10092 10092 10091 10090 10090 10090 10090 10090 10090 10090 10090 10090 10090 10091 10091 10092 10092 10092 10093 10093 10093 10092 10093 10093 10094 10095 10097 10097 10098 10099 10100 10101 10102 10104 10107 10108 10109 10110 10112 10114 10115 10118 10120 10122 10124 10126 10129 10130 10132 10134 10136 10139 10141 10144 10146 10149 10152 10155 10157 10160 10164 10167 10170 10174 10177 10180 10183 10185 10188 10191 10194 10196 10199 10202 10204 10207 10209 10211 10213 10215 10217 10218
10089 10087 10085 10085 10085 10085 10085 10084 10084 10084 10084 10084 10084 10084 10084 10084 10084 10085 10085 10085 10085 10086 10086 10086 10086 10086 10087 10087 10087 10088 10089 10090 10091 10091 10092 10094 10095 10097 10099 10100 10102 10104 10105 10106 10108 10110 10113 10114 10116 10119 10120 10122 10124 10126 10128 10130 10133 10135 10138 10141 10144 10147 10149 10152 10155 10159 10162 10165 10168 10171 10174 10177 10179 10182 10185 10187 10190 10193 10195 10198 10200 10202 10204 10206 10208 10209
10084 10081 10079 10079 10079 10079 10078 10078 10078 10078 10078 10079 10078 10077 10077 10078 10078 10078 10079 10079 10079 10079 10080 10080 10080 10080 10080 10080 10081 10082 10083 10084 10084 10085 10086 10087 10089 10090 10092 10094 10095 10097 10098 10099 10101 10103 10105 10107 10109 10111 10113 10114 10116 10118 10120 10122 10125 10127 10130 10133 10135 10139 10141 10144 10147 10150 10153 10156 10159 10162 10165 10167 10170 10173 10176 10179 10182 10184 10187 10189 10191 10193 10195 10197 10199 10201
10080 10077 10074 10073 10072 10072 10072 10072 10072 10072 10072 10072 10072 10072 10072 10072 10072 10072 10072 10073 10073 10073 10073 10074 10074 10074 10074 10075 10075 10075 10076 10077 10078 10079 10080 10080 10081 10083 10085 10087 10089 10090 10090 10092 10094 10096 10098 10100 10102 10104 10105 10107 10109 10110 10112 10114 10117 10119 10122 10125 10128 10130 10134 10136 10139 10142 10145 10148 10150 10154 10156 10159 10162 10164 10167 10170 10173 10175 10178 10180 10182 10185 10187 10189 10190 10192
10074 10072 10070 10069 10067 10066 10065 10065 10065 10065 10065 10066 10066 10066 10066 10066 10066 10067 10067 10067 10067 10067 10067 10068 10068 10068 10068 10069 10069 10069 10070 10071 10072 10072 10073 10074 10075 10076 10079 10080 10082 10082 10084 10085 10087 10089 10091 10093 10094 10096 10098 10099 10101 10103 10105 10107 10110 10112 10115 10117 10120 10123 10125 10129 10131 10134 10137 10140 10142 10145 10147 10150 10153 10156 10159 10162 10165 10167 10169 10172 10174 10176 10178 10180 10182 10184
10069 10067 10065 10064 10062 10061 10060 10060 10059 10059 10059 10060 10060 10060 10060 10060 10061 10061 10061 10061 10061 10062 10062 10062 10062 10062 10062 10062 10063 10064 10064 10065 10065 10066 10067 10067 10069 10070 10072 10074 10075 10076 10077 10079 10080 10082 10084 10086 10087 10089 10091 10092 10094 10096 10098 10100 10103 10105 10108 10110 10113 10115 10118 10121 10124 10126 10129 10132 10134 10137 10139 10142 10145 10148 10151 10154 10156 10159 10160 10163 10165 10167 10170 10172 10174 10176
10063 10062 10061 10059 10058 10057 10055 10055 10054 10054 10054 10054 10054 10054 10055 10055 10055 10055 10055 10056 10056 10057 10057 10056 10055 10055 10056 10057 10057 10058 10058 10059 10060 10060 10060 10062 10062 10064 10065 10067 10069 10070 10070 10072 10074 10076 10078 10079 10081 10083 10084 10086 10087 10089 10092 10094 10096 10099 10101 10104 10106 10109 10111 10114 10116 10119 10122 10124 10127 10129 10131 10134 10137 10140 10143 10145 10147 10150 10152 10154 10157 10159 10161 10164 10166 10169
10057 10057 10055 10055 10054 10052 10051 10050 10049 10049 10049 10048 10049 10049 10049 10049 10050 10050 10050 10050 10051 10052 10051 10050 10050 10050 10050 10052 10052 10052 10053 10054 10054 10054 10055 10055 10057 10057 10059 10060 10062 10064 10065 10066 10068 10070 10072 10074 10075 10076 10078 10079 10081 10083 10085 10087 10090 10092 10094 10097 10099 10101 10104 10106 10109 10112 10114 10117 10119 10121 10124 10127 10129 10132 10135 10137 10139 10141 10144 10146 10149 10150 10153 10155 10159 10161
10052 10051 10050 10050 10049 10047 10047 10045 10045 10044 10044 10043 10043 10044 10044 10044 10044 10045 10044 10045 10046 10046 10045 10045 10045 10045 10045 10046 10047 10047 10047 10048 10048 10049 10049 10050 10051 10052 10053 10055 10057 10059 10059 10060 10062 10064 10066 10067 10069 10070 10072 10073 10075 10077 10079 10081 10084 10085 10088 10090 10092 10095 10097 10099 10102 10104 10107 10109 10112 10114 10117 10119 10122 10124 10126 10129 10131 10134 10135 10138 10140 10143 10145 10148 10151 10154
10047 10046 10045 10045 10044 10043 10042 10041 10040 10040 10039 10039 10039 10039 10039 10039 10039 10039 10039 10040 10041 10041 10040 10040 10040 10040 10040 10040 10041 10042 10042 10042 10042 10044 10045 10045 10046 10046 10048 10050 10052 10053 10054 10055 10057 10059 10060 10061 10062 10064 10065 10067 10069 10070 10072 10075 10077 10079 10081 10084 10085 10088 10090 10092 10095 10097 10100 10102 10104 10107 10109 10111 10114 10116 10119 10120 10123 10125 10128 10130 10132 10135 10137 10140 10143 10146
10042 10041 10040 10040 10039 10039 10038 10037 10036 10035 10035 10035 10034 10034 10034 10034 10034 10034 10034 10035 10035 10036 10035 10036 10036 10036 10036 10036 10036 10036 10036 10037 10038 10039 10040 10041 10041 10042 10043 10045 10046 10047 10049 10050 10052 10052 10054 10055 10057 10058 10059 10061 10063 10065 10067 10069 10071 10073 10075 10077 10079 10081 10084 10085 10088 10090 10092 10095 10097 10099 10102 10104 10106 10109 10111 10113 10115 10118 10120 10123 10125 10127 10130 10133 10135 10138
10037 10037 10036 10035 10035 10034 10034 10032 10032 10031 10030 10030 10030 10030 10030 10030 10029 10029 10029 10030 10030 10030 10031 10032 10032 10032 10032 10032 10032 10032 10031 10032 10034 10035 10035 10036 10036 10037 10039 10040 10041 10042 10044 10045 10046 10047 10048 10049 10051 10052 10054 10055 10057 10059 10060 10063 10065 10067 10069 10071 10073 10075 10077 10079 10081 10084 10086 10088 10090 10092 10095 10097 10099 10102 10104 10106 10109 10110 10113 10115 10117 10120 10123 10125 10129 10130
10033 10032 10032 10031 10030 10030 10029 10029 10027 10027 10026 10025 10025 10025 10025 10025 10025 10024 10024 10024 10025 10025 10027 10027 10027 10028 10028 10028 10027 10027 10027 10028 10029 10030 10031 10031 10031 10032 10034 10035 10035 10037 10038 10040 10040 10042 10042 10044 10045 10047 10049 10050 10051 10053 10055 10057 10059 10061 10063 10065 10067 10069 10070 10072 10075 10077 10079 10082 10084 10086 10088 10090 10092 10094 10097 10099 10101 10104 10105 10108 10110 10113 10115 10119 10121 10123
10029 10028 10027 10027 10027 10026 10025 10024 10024 10023 10022 10021 10020 10020 10020 10020 10020 10020 10019 10019 10020 10020 10022 10022 10024 10024 10024 10024 10023 10023 10023 10024 10025 10025 10026 10026 10027 10027 10029 10030 10030 10032 10033 10034 10035 10036 10037 10038 10040 10041 10043 10044 10046 10047 10049 10052 10053 10055 10057 10059 10060 10062 10064 10067 10069 10071 10073 10075 10077 10079 10082 10084 10085 10088 10090 10092 10094 10097 10099 10101 10104 10106 10109 10111 10114 10115
10025 10024 10024 10023 10022 10022 10021 10020 10020 10019 10018 10017 10017 10016 10016 10015 10015 10015 10015 10015 10015 10015 10017 10018 10019 10019 10020 10020 10019 10019 10019 10020 10020 10021 10022 10022 10022 10022 10024 10025 10026 10027 10028 10029 10030 10031 10032 10033 10034 10036 10037 10039 10040 10042 10044 10046 10047 10049 10051 10053 10054 10056 10058 10060 10062 10065 10067 10069 10071 10073 10075 10077 10079 10082 10084 10085 10088 10090 10092 10094 10096 10099 10102 10104 10106 10109
10020 10020 10020 10020 10019 10019 10017 10017 10016 10015 10014 10014 10013 10012 10012 10012 10011 10011 10011 10011 10010 10010 10011 10012 10014 10015 10015 10015 10015 10015 10015 10016 10016 10017 10017 10017 10017 10018 10019 10020 10021 10022 10023 10024 10025 10026 10027 10028 10029 10030 10032 10034 10035 10037 10039 10040 10042 10044 10045 10047 10049 10050 10052 10054 10057 10059 10061 10063 10065 10067 10069 10071 10073 10075 10077 10079 10081 10083 10085 10087 10090 10092 10094 10097 10099 10101
10016 10016 10016 10016 10015 10015 10014 10014 10012 10012 10011 10010 10010 10009 10009 10008 10007 10007 10007 10007 10007 10006 10006 10007 10008 10009 10010 10011 10011 10012 10012 10012 10012 10012 10012 10012 10012 10013 10014 10015 10016 10017 10019 10019 10020 10021 10022 10023 10024 10026 10027 10029 10030 10031 10033 10035 10037 10039 10040 10041 10043 10045 10046 10049 10050 10053 10055 10057 10059 10060 10062 10065 10067 10069 10070 10072 10075 10077 10079 10080 10083 10085 10087 10089 10092 10094
10012 10012 10012 10012 10012 10012 10010 10010 10009 10008 10007 10007 10006 10005 10005 10004 10004 10004 10004 10003 10002 10002 10002 10002 10002 10004 10005 10006 10007 10007 10008 10008 10009 10009 10008 10008 10008 10009 10009 10010 10012 10013 10014 10014 10015 10016 10017 10019 10020 10021 10022 10023 10024 10025 10028 10030 10032 10033 10034 10035 10037 10039 10040 10043 10045 10047 10049 10050 10052 10054 10056 10059 10060 10062 10064 10066 10068 10070 10072 10074 10076 10078 10080 10082 10085 10087
10007 10007 10007 10008 10008 10008 10007 10007 10005 10005 10004 10004 10003 10002 10002 10001 10001 10000 10000 9999 9999 9999 9998 9997 9998 9999 9999 10001 10002 10003 10004 10004 10004 10005 10005 10004 10004 10005 10005 10005 10007 10008 10009 10010 10010 10012 10013 10014 10015 10015 10017 10017 10019 10020 10022 10024 10026 10027 10029 10030 10032 10034 10035 10037 10039 10041 10043 10044 10046 10048 10050 10052 10054 10055 10057 10059 10062 10064 10065 10067 10069 10071 10073 10075 10077 10080
10004 10003 10003 10004 10004 10004 10004 10003 10002 10002 10001 10000 10000 9999 9999 9998 9998 9997 9997 9996 9995 9995 9994 9994 9994 9994 9994 9995 9996 9997 9999 9999 10000 10000 10001 10001 10001 10001 10001 10002 10002 10003 10004 10005 10006 10007 10008 10009 10009 10010 10011 10012 10014 10015 10017 10019 10020 10022 10024 10025 10027 10028 10030 10031 10033 10035 10037 10038 10040 10042 10044 10045 10047 10049 10051 10053 10055 10057 10059 10060 10062 10064 10066 10069 10070 10073
10000 9999 9999 9999 9999 10000 10000 9999 9999 9999 9998 9997 9997 9996 9995 9995 9995 9994 9994 9993 9992 9992 9991 9990 9990 9990 9990 9990 9991 9992 9993 9994 9995 9996 9997 9997 9997 9997 9997 9998 9998 9999 10000 10001 10002 10002 10003 10004 10004 10005 10006 10007 10009 10010 10011 10013 10015 10016 10019 10020 10021 10022 10024 10025 10027 10029 10030 10032 10034 10035 10037 10039 10041 10043 10044 10046 10049 10050 10052 10054 10055 10058 10060 10062 10064 10066
9996 9995 9995 9994 9994 9995 9995 9995 9995 9995 9994 9994 9994 9993 9993 9992 9992 9991 9991 9990 9989 9989 9988 9987 9987 9986 9985 9985 9986 9987 9988 9989 9990 9992 9992 9993 9994 9994 9994 9994 9994 9995 9996 9997 9997 9997 9998 9999 9999 10000 10001 10002 10003 10004 10005 10007 10009 10011 10013 10014 10015 10017 10019 10020 10022 10023 10025 10026 10027 10029 10031 10032 10034 10036 10038 10040 10042 10044 10045 10048 10050 10052 10054 10055 10058 10059
9993 9992 9991 9990 9990 9990 9990 9990 9990 9990 9990 9990 9990 9990 9990 9989 9989 9989 9988 9987 9986 9985 9985 9984 9984 9983 9982 9982 9982 9982 9982 9984 9985 9986 9987 9988 9989 9989 9990 9990 9990 9991 9992 9992 9992 9993 9994 9994 9995 9995 9996 9997 9998 9999 10000 10002 10004 10005 10007 10008 10009 10011 10013 10014 10015 10017 10019 10020 10021 10023 10025 10026 10028 10030 10032 10034 10035 10037 10040 10042 10044 10045 10047 10049 10051 10053
9990 9989 9988 9987 9987 9986 9986 9986 9986 9986 9986 9986 9986 9986 9986 9986 9985 9985 9984 9984 9983 9982 9982 9982 9981 9980 9979 9978 9978 9978 9978 9979 9980 9981 9982 9983 9984 9985 9985 9986 9986 9987 9987 9988 9988 9989 9989 9989 9990 9990 9991 9992 9993 9994 9995 9996 9998 9999 10001 10002 10004 10005 10007 10008 10009 10011 10012 10014 10015 10017 10019 10020 10022 10024 10026 10028 10030 10032 10034 10035 10037 10039 10040 10042 10044 10045
9987 9986 9985 9984 9983 9982 9982 9982 9982 9982 9982 9982 9982 9982 9982 9982 9982 9982 9981 9980 9980 9980 9979 9979 9977 9977 9975 9975 9974 9974 9974 9974 9975 9975 9977 9977 9979 9979 9980 9981 9982 9982 9983 9984 9984 9984 9984 9985 9985 9985 9986 9987 9988 9989 9989 9990 9992 9993 9995 9996 9998 9999 10000 10002 10004 10005 10007 10008 10009 10010 10012 10014 10016 10018 10020 10022 10024 10025 10027 10029 10030 10032 10034 10035 10037 10039
9984 9983 9982 9980 9980 9979 9979 9978 9978 9977 9977 9977 9977 9977 9978 9978 9978 9978 9977 9977 9977 9977 9976 9975 9974 9974 9972 9971 9970 9970 9970 9970 9970 9971 9972 9972 9974 9974 9975 9976 9977 9978 9979 9979 9979 9980 9980 9980 9980 9981 9982 9982 9983 9984 9984 9985 9985 9987 9989 9990 9992 9993 9994 9996 9998 10000 10000 10002 10004 10005 10007 10009 10010 10013 10015 10016 10018 10019 10021 10022 10024 10025 10027 10029 10030 10032
9980 9979 9979 9978 9977 9976 9975 9975 9974 9974 9973 9973 9973 9973 9973 9974 9974 9974 9974 9974 9974 9973 9973 9972 9971 9970 9969 9968 9967 9967 9966 9966 9966 9967 9967 9968 9969 9969 9970 9971 9972 9972 9974 9974 9974 9975 9975 9975 9976 9977 9977 9978 9978 9978 9979 9979 9980 9981 9982 9984 9986 9987 9989 9990 9992 9994 9995 9996 9998 9999 10001 10004 10005 10007 10009 10010 10012 10014 10015 10016 10017 10019 10020 10022 10024 10025
9976 9975 9975 9974 9974 9972 9972 9971 9970 9970 9969 9969 9969 9969 9969 9969 9969 9969 9969 9969 9970 9969 9969 9969 9968 9967 9965 9964 9964 9964 9963 9962 9962 9962 9962 9963 9964 9965 9965 9966 9967 9967 9968 9969 9970 9970 9970 9971 9972 9972 9973 9973 9973 9973 9973 9974 9974 9975 9977 9979 9980 9982 9983 9984 9985 9987 9989 9991 9992 9994 9996 9998 10000 10002 10003 10004 10006 10007 10009 10010 10011 10012 10014 10015 10017 10018
9972 9972 9971 9970 9970 9969 9969 9968 9967 9966 9965 9965 9965 9964 9964 9964 9964 9964 9965 9965 9965 9965 9965 9965 9964 9963 9962 9961 9960 9960 9959 9959 9959 9959 9959 9959 9959 9960 9961 9962 9962 9963 9964 9964 9965 9965 9965 9966 9967 9967 9967 9968 9968 9968 9968 9969 9969 9970 9972 9974 9975 9976 9977 9979 9980 9982 9984 9985 9987 9989 9990 9993 9994 9995 9997 9999 10000 10002 10002 10004 10005 10006 10007 10009 10010 10011
9968 9967 9967 9967 9966 9965 9965 9964 9964 9963 9962 9962 9961 9960 9960 9960 9960 9960 9960 9960 9961 9961 9961 9960 9960 9959 9959 9958 9957 9957 9957 9956 9955 9955 9955 9955 9955 9955 9956 9957 9957 9958 9959 9959 9960 9960 9960 9961 9962 9962 9962 9962 9962 9962 9963 9964 9965 9965 9967 9969 9970 9971 9972 9973 9975 9977 9978 9980 9981 9983 9985 9987 9989 9990 9992 9993 9994 9995 9997 9998 9999 10000 10001 10002 10004 10005
9964 9964 9963 9962 9962 9962 9961 9960 9960 9960 9959 9958 9957 9957 9957 9957 9957 9956 9956 9956 9957 9957 9956 9956 9955 9955 9955 9954 9954 9954 9953 9953 9952 9952 9952 9951 9951 9951 9952 9952 9952 9953 9954 9954 9955 9955 9955 9956 9956 9957 9957 9957 9957 9957 9958 9959 9960 9962 9963 9964 9965 9966 9967 9968 9969 9971 9973 9974 9976 9977 9979 9981 9983 9984 9986 9987 9989 9990 9991 9992 9993 9994 9995 9997 9998 10000
9960 9959 9959 9959 9958 9958 9957 9957 9957 9956 9955 9955 9954 9954 9953 9953 9953 9953 9952 9952 9952 9952 9952 9952 9952 9951 9951 9950 9950 9950 9950 9949 9949 9949 9948 9948 9947 9947 9947 9947 9948 9949 9949 9949 9950 9950 9950 9951 9951 9951 9952 9952 9952 9952 9954 9954 9956 9957 9958 9959 9960 9961 9962 9963 9964 9966 9967 9969 9970 9972 9974 9975 9977 9979 9980 9982 9983 9984 9985 9987 9987 9989 9990 9991 9993 9994